DateTimeUTC,F1_A11,F1_S11,BsB_S11,BsG_S11,BsR_S11,BbsB_S11,BbsG_S11,BbsR_S11,BaB_A11,BaG_A11,BaR_A11,Tu_S11,T_S11,Uu_S11,U_S11,P_S11,T1_A11
2021-04-26T05:00:00Z,00000200,21000000,,,,,,,0000.37,0000.08,-000.01,16.5,23.8,,00.0,0685.6,31.0
2021-04-26T05:01:00Z,00000200,21000000,,,,,,,0000.34,0000.70,0000.20,16.5,23.8,,00.0,0685.6,31.0
2021-04-26T05:02:00Z,00000200,21000000,,,,,,,0000.59,0000.29,0000.28,16.5,23.8,,00.0,0685.6,31.0
2021-04-26T05:03:00Z,00000200,61000000,,,,,,,0001.15,0001.02,0001.13,16.5,23.9,,00.0,0685.6,31.0
2021-04-26T05:04:00Z,00000200,41000000,0001.77,0001.44,0001.17,-000.15,0000.43,0000.16,0000.31,0000.61,0000.07,16.8,23.7,00.7,00.4,0686.5,31.0
2021-04-26T05:05:00Z,00000200,01000000,0001.44,0001.59,0000.74,-000.10,0000.33,0000.19,0000.54,0000.83,0000.58,16.9,23.7,00.8,00.6,0686.6,31.0
2021-04-26T05:06:00Z,00000200,01000000,0002.57,0001.49,0000.93,0000.45,0000.35,0000.11,0000.51,0000.21,0000.40,16.9,23.7,00.7,00.5,0686.6,31.0
2021-04-26T05:07:00Z,00000200,01000000,0002.46,0001.62,0001.05,-000.03,0000.14,0000.34,0000.85,0000.51,0000.31,16.8,23.7,00.6,00.4,0686.6,31.0
2021-04-26T05:08:00Z,00000200,01000000,0001.55,0001.44,0000.73,0000.56,0000.28,-000.06,0001.40,0000.91,0000.88,16.8,23.6,00.8,00.5,0686.6,31.0
2021-04-26T05:09:00Z,00000200,01000000,0001.52,0001.56,0001.44,0000.06,0000.52,0000.28,0000.58,0000.81,0000.61,16.8,23.6,00.8,00.5,0686.7,31.0
2021-04-26T05:10:00Z,00000200,01000000,0002.12,0001.39,0001.03,0000.42,0000.25,0000.15,-000.13,0000.38,-000.33,16.7,23.6,00.7,00.5,0686.7,31.0
2021-04-26T05:11:00Z,00000200,01000000,0002.38,0001.75,0001.08,0000.39,0000.10,0000.50,0000.71,0000.15,0000.55,16.7,23.6,00.5,00.3,0686.7,31.0
2021-04-26T05:12:00Z,00000200,01000000,0002.34,0001.60,0001.08,0000.34,0000.16,0000.04,0001.40,0001.27,0001.15,16.7,23.5,00.7,00.4,0686.7,31.0
2021-04-26T05:13:00Z,00000200,01000000,0001.58,0001.60,0001.13,-000.23,0000.34,0000.36,0001.56,0001.11,0001.14,16.7,23.5,00.9,00.6,0686.6,31.0
2021-04-26T05:14:00Z,00000200,01000000,0002.53,0001.77,0000.98,0000.58,0000.08,0000.25,0001.06,0001.18,0000.54,16.7,23.5,01.0,00.7,0686.6,31.0
2021-04-26T05:15:00Z,00000200,01000000,0002.45,0001.83,0000.82,0000.36,0000.35,0000.15,0001.09,0001.17,0000.73,16.7,23.5,01.1,00.7,0686.6,31.0
2021-04-26T05:16:00Z,00000200,01000000,0002.44,0001.54,0000.96,0000.46,0000.52,-000.03,0000.94,0000.87,0000.87,16.8,23.5,01.2,00.8,0686.6,31.0
2021-04-26T05:17:00Z,00000200,01000000,0002.53,0001.91,0001.00,0000.27,0000.46,0000.31,0001.17,0000.80,0000.83,16.9,23.6,01.3,00.8,0686.6,31.0
2021-04-26T05:18:00Z,00000200,01000000,0003.14,0001.80,0001.12,0000.16,0000.51,0000.11,0000.52,0000.71,0000.56,16.9,23.6,01.3,00.9,0686.6,31.0
2021-04-26T05:19:00Z,00000200,01000000,0002.38,0001.91,0001.07,0000.44,0000.39,0000.12,0000.35,0000.71,0000.05,17.0,23.6,01.2,00.8,0686.6,31.0
2021-04-26T05:20:00Z,00000200,01000000,0002.73,0001.68,0001.04,-000.12,0000.18,0000.43,0000.77,0000.74,0000.54,17.0,23.7,01.1,00.7,0686.6,31.0
2021-04-26T05:21:00Z,00000200,01000000,0001.97,0001.98,0001.06,0000.33,0000.32,0000.16,0000.60,-000.28,-000.32,17.0,23.7,01.0,00.7,0686.6,31.0
2021-04-26T05:22:00Z,00000200,01000000,0001.55,0001.63,0001.03,-000.14,0000.02,0000.26,0000.47,0000.82,0001.00,17.0,23.6,01.0,00.6,0686.6,31.0
2021-04-26T05:23:00Z,00000200,01000000,0002.51,0001.50,0000.97,0000.34,0000.17,-000.03,0000.91,0000.49,0000.29,16.9,23.6,00.9,00.6,0686.6,31.0
2021-04-26T05:24:00Z,00000200,01000000,0002.17,0001.63,0001.22,0000.42,0000.29,0000.12,0000.68,0000.63,0000.71,16.9,23.6,00.7,00.5,0686.6,31.0
2021-04-26T05:25:00Z,00000200,01000000,0002.21,0001.65,0001.00,0000.44,0000.20,0000.31,0000.81,0000.76,0000.42,16.8,23.6,00.8,00.6,0686.6,31.0
2021-04-26T05:26:00Z,00000200,01000000,0002.24,0001.67,0001.06,-000.01,0000.31,-000.03,0000.86,0000.90,0000.68,16.8,23.6,00.8,00.6,0686.6,31.0
2021-04-26T05:27:00Z,00000200,01000000,0002.08,0001.67,0000.49,-000.00,0000.35,0000.06,0000.83,0000.96,0000.44,16.8,23.5,01.0,00.6,0686.6,31.0
2021-04-26T05:28:00Z,00000200,01000000,0002.67,0001.82,0000.91,0000.37,0000.40,0000.12,0000.97,0000.85,0000.47,16.8,23.5,00.9,00.6,0686.6,31.0
2021-04-26T05:29:00Z,00000200,01000000,0002.88,0001.66,0000.96,0000.07,0000.46,0000.32,0000.99,0000.54,0000.93,16.8,23.5,01.0,00.7,0686.6,31.0
2021-04-26T05:30:00Z,00000200,01000000,0001.92,0001.80,0001.20,0000.73,0000.44,0000.26,0000.82,0001.05,0000.50,16.8,23.5,01.0,00.7,0686.6,31.0
2021-04-26T05:31:00Z,00000200,01000000,0002.54,0002.11,0001.29,0000.39,0000.15,0000.07,0000.87,0000.70,0000.64,16.9,23.6,01.1,00.7,0686.6,31.0
2021-04-26T05:32:00Z,00000200,01000000,0001.89,0001.86,0001.13,0000.68,0000.43,0000.14,0000.80,0000.78,0000.56,16.9,23.6,01.0,00.7,0686.6,31.0
2021-04-26T05:33:00Z,00000200,01000000,0002.11,0001.57,0001.07,0000.36,0000.18,0000.34,0000.79,0000.66,0000.55,16.9,23.6,00.9,00.6,0686.6,31.0
2021-04-26T05:34:00Z,00000200,01000000,0002.65,0001.58,0001.17,0000.29,0000.31,0000.33,0000.24,0000.36,0000.18,17.0,23.6,00.8,00.6,0686.6,31.0
2021-04-26T05:35:00Z,00000200,01000000,0002.40,0001.80,0001.14,0000.69,0000.25,0000.26,0000.75,0000.56,0000.76,16.9,23.6,00.8,00.6,0686.5,31.0
2021-04-26T05:36:00Z,00000200,01000000,0002.41,0001.79,0001.11,0000.19,0000.15,0000.09,0000.72,0000.84,0000.42,16.9,23.6,00.8,00.5,0686.5,31.0
2021-04-26T05:37:00Z,00000200,01000000,0002.57,0001.93,0001.17,0000.53,0000.33,0000.30,0001.02,0000.59,0000.36,16.9,23.6,00.8,00.6,0686.5,31.0
2021-04-26T05:38:00Z,00000200,01000000,0002.19,0001.67,0000.96,0000.58,0000.50,-000.06,0000.37,0000.52,0000.31,16.8,23.5,00.6,00.4,0686.6,31.0
2021-04-26T05:39:00Z,00000200,01000000,0002.61,0001.95,0001.32,0000.50,0000.45,0000.31,0000.37,0000.36,0000.34,16.8,23.5,00.7,00.4,0686.5,31.0
2021-04-26T05:40:00Z,00000200,01000000,0001.99,0001.85,0001.12,-000.05,-000.01,0000.26,0000.85,0000.85,0000.43,16.8,23.5,00.6,00.4,0686.6,31.0
2021-04-26T05:41:00Z,00000200,01000000,0002.95,0001.55,0001.29,0000.37,0000.34,0000.20,0000.64,0000.49,0000.71,16.7,23.5,00.4,00.3,0686.6,30.9
2021-04-26T05:42:00Z,00000200,01000000,0002.49,0002.07,0001.30,0000.02,0000.22,0000.26,0000.56,0000.55,0000.28,16.7,23.5,00.4,00.3,0686.6,30.9
2021-04-26T05:43:00Z,00000200,01000000,0001.87,0001.89,0001.21,0000.00,0000.28,0000.19,0000.51,0000.50,0000.34,16.7,23.4,00.3,00.2,0686.6,31.0
2021-04-26T05:44:00Z,00000200,01000000,0001.75,0001.72,0000.86,0000.15,0000.62,-000.04,0000.64,0000.30,0000.24,16.7,23.5,00.3,00.2,0686.6,31.0
2021-04-26T05:45:00Z,00000200,01000000,0002.23,0001.85,0000.96,0000.45,0000.15,-000.01,0001.40,0001.21,0000.83,16.7,23.5,00.3,00.2,0686.6,31.0
2021-04-26T05:46:00Z,00000200,01000000,0002.75,0001.63,0000.94,0000.30,0000.16,-000.06,0000.43,0000.65,0000.62,16.8,23.5,00.3,00.2,0686.6,31.0
2021-04-26T05:47:00Z,00000200,01000000,0003.04,0001.45,0000.91,0000.59,0000.55,-000.04,0000.83,0000.81,0000.33,16.9,23.5,00.3,00.2,0686.6,31.0
2021-04-26T05:48:00Z,00000200,01000000,0002.33,0001.73,0000.83,0000.56,0000.25,0000.13,0000.65,0000.44,0000.36,16.9,23.6,00.3,00.2,0686.5,31.0
2021-04-26T05:49:00Z,00000200,01000000,0002.36,0001.88,0001.14,0000.33,0000.19,-000.11,0000.11,0000.21,0000.23,16.9,23.6,00.2,00.1,0686.5,31.0
2021-04-26T05:50:00Z,00000200,01000000,0002.91,0001.88,0000.96,0000.64,0000.23,-000.00,0000.37,-000.01,0000.02,16.9,23.6,00.1,00.1,0686.5,31.0
2021-04-26T05:51:00Z,00000200,01000000,0002.77,0001.82,0001.25,0000.46,0000.45,0000.23,0000.60,0000.81,0000.03,16.9,23.5,00.1,00.0,0686.5,31.0
2021-04-26T05:52:00Z,00000200,01000000,0002.31,0001.82,0001.08,0000.51,0000.17,0000.37,0000.63,0000.75,0001.00,16.8,23.5,00.1,00.0,0686.5,31.0
2021-04-26T05:53:00Z,00000200,01000000,0001.89,0001.90,0001.02,0000.52,0000.51,-000.04,0000.87,0000.84,0000.33,16.8,23.5,00.0,00.0,0686.5,31.0
2021-04-26T05:54:00Z,00000200,01000000,0003.16,0001.76,0001.12,-000.01,0000.33,0000.35,0001.23,0000.46,0000.83,16.8,23.5,00.1,00.0,0686.5,31.0
2021-04-26T05:55:00Z,00000200,01000000,0002.17,0001.90,0000.91,0000.35,0000.44,-000.24,0001.19,0001.16,0000.66,16.8,23.5,00.1,00.0,0686.5,31.0
2021-04-26T05:56:00Z,00000200,01000000,0002.22,0001.81,0001.20,0000.50,0000.32,0000.35,0001.20,0001.11,0000.85,16.7,23.5,00.1,00.1,0686.5,31.0
2021-04-26T05:57:00Z,00000200,41000000,,,,,,,0001.14,0001.36,0001.30,16.8,23.5,,00.0,0686.4,31.0
2021-04-26T05:58:00Z,00000200,61000000,,,,,,,0000.26,0000.01,0000.13,16.4,23.6,00.3,00.2,0685.5,31.0
2021-04-26T05:59:00Z,00000200,21000000,,,,,,,0000.52,-000.07,0000.28,16.4,23.7,00.3,00.2,0685.5,31.0
